Regional Weather Roundup
Issued by NWS

Home | Current Version | Previous Version | Text Only | Print | Product List | Glossary On
Versions: 1 2 3 4 5 6 7 8 9 10 11 12 13 14 15 16 17 18 19 20 21 22 23 24 25 26 27 28 29 30 31 32 33 34 35 36 37 38 39 40 41 42 43 44 45 46 47 48 49 50
000
ASUS43 KMPX 020310
RWRMN
WEATHER ROUNDUP FOR MINNESOTA
NATIONAL WEATHER SERVICE TWIN CITIES/CHANHASSEN MN
1000 PM CDT SAT AUG 01 2015


NOTE: "FAIR" INDICATES FEW OR NO CLOUDS BELOW 12,000 FEET WITH NO
SIGNIFICANT WEATHER AND/OR OBSTRUCTIONS TO VISIBILITY. N/A MEANS
CURRENT SKY AND/OR WEATHER CONDITIONS ARE NOT AVAILABLE.

MNZ060>063-068>070-020400-
   Twin Cities Metro

CITY           SKY/WX    TMP DP  RH WIND       PRES   REMARKS
TWIN CITIES    PTCLDY    80  67  64 S8        29.78S
ST PAUL        CLEAR     76  68  76 S8        29.77F
CRYSTAL        PTCLDY    80  68  66 S7        29.76S
BLAINE         CLEAR     81  70  69 SW7       29.77S
LAKEVILLE      CLEAR     72  66  83 S3        29.80S
EDEN PRAIRIE   CLEAR     77  66  68 SW8       29.77S
SOUTH ST PAUL  CLEAR     78  67  68 S7        29.78S
LAKE ELMO      FAIR      73  68  83 S8        29.79S
$$
MNZ001>005-007-008-013>017-022>024-027-028-020400-
   Northwest Minnesota

CITY           SKY/WX    TMP DP  RH WIND       PRES   REMARKS
BEMIDJI        PTCLDY    70  60  69 SW3       29.74S
HALLOCK        PTCLDY    72  61  68 SW7       29.66F
ROSEAU         MOCLDY    66  61  82 SW6       29.68S
WARROAD        MOCLDY    70  64  83 SW3       29.68S
THIEF RVR FALL PTCLDY    70  63  78 S6        29.72R
CROOKSTON      CLEAR     68  63  83 S3        29.71S
FOSSTON        PTCLDY    64  57  77 CALM      29.75R
DETROIT LAKES  CLEAR     73  63  68 CALM      29.76S
MOORHEAD       CLEAR     73  66  78 E3        29.72S
PARK RAPIDS    CLEAR     73  60  63 CALM      29.75F
MAHNOMEN       FAIR      70  63  80 CALM      29.73F
$$
MNZ006-009>011-018-025>026-020400-
   North Central Minnesota

CITY           SKY/WX    TMP DP  RH WIND       PRES   REMARKS
BAUDETTE       MOCLDY    67  58  72 CALM      29.69F
FLAG ISLAND    MOCLDY    72  59  64 SW5       29.66S
INTL FALLS     PTCLDY    59  56  89 CALM      29.69F
WASKISH        PTCLDY    70  61  73 SW5       29.72S
BIG FORK       PTCLDY    61  57  88 CALM      29.74S
LONGVILLE      CLEAR     63  61  94 CALM      29.76S
GRAND RAPIDS   PTCLDY    70  55  60 S5        29.75S
CRANE LAKE     CLEAR     57  55  94 S1        29.73S
ORR            PTCLDY    63  54  72 CALM      29.71S
COOK           PTCLDY    63  55  77 CALM      29.73F
WALKER         FAIR      66  61  82 CALM      29.74F
$$
MNZ012-019>021-037-020400-
   Northeast Minnesota

CITY           SKY/WX    TMP DP  RH WIND       PRES   REMARKS
DULUTH         PTCLDY    69  57  65 SW9       29.76S
ELY            CLEAR     66  54  63 CALM      29.73S
HIBBING        PTCLDY    61  56  83 CALM      29.74F
EVELETH        CLEAR     68  54  60 SW5       29.76S
DULUTH HARBOR  CLEAR     72  63  73 SW7       29.73S
TWO HARBORS    CLEAR     64  59  82 W3        29.72S
SILVER BAY     CLEAR     63  55  77 CALM      29.72S
GRAND MARAIS     N/A     51  45  79 CALM      29.69S
G MARAIS ARPRT PTCLDY    63  48  59 W5        29.75S
$$
MNZ029>031-032-039>041-046>048-054>057-064-020400-
   West Central Minnesota

CITY           SKY/WX    TMP DP  RH WIND       PRES   REMARKS
FERGUS FALLS   PTCLDY    75  68  78 E3        29.72S
WHEATON        CLEAR     70  64  83 CALM      29.74R
MORRIS         CLEAR     72  66  83 S6        29.74R
ALEXANDRIA     CLEAR     76  67  73 S7        29.77S
ELBOW LAKE     FAIR      73  69  89 S6        29.74R
WADENA         CLEAR     72  64  78 CALM      29.75S
GLENWOOD       CLEAR     72  66  83 S5        29.77S
APPLETON       PTCLDY    77  66  69 S5        29.74S
BENSON         CLEAR     72  64  78 S3        29.75S
ORTONVILLE     CLEAR     73  64  73 S5        29.74S
MADISON        CLEAR     72  64  78 S6        29.75F
WILLMAR        FAIR      73  66  78 CALM      29.79R
$$
MNZ033>034-036-042>043-049>051-058-059-020400-
   Central Minnesota

CITY           SKY/WX    TMP DP  RH WIND       PRES   REMARKS
ST CLOUD       CLEAR     71  68  90 S6        29.76S
SAUK CENTRE    FAIR      71  66  84 S7        29.76S
PAYNESVILLE    CLEAR     72  66  80 SE6       29.78R
AITKIN         CLEAR     68  61  77 S3        29.75S
PINE RIVER     CLEAR     68  61  77 CALM      29.80S
BRAINERD       CLEAR     68  62  81 S5        29.76F
STAPLES        CLEAR     73  63  68 CALM      29.76S
LONG PRAIRIE   FAIR      70  68  94 CALM      29.77R FOG
LITTLE FALLS   CLEAR     72  63  73 CALM      29.76S
LITCHFIELD     CLEAR     75  70  83 CALM      29.79R
BUFFALO        CLEAR     76  65  69 S5        29.78S
MAPLE LAKE     CLEAR     75  68  78 SW5       29.78S
$$
MNZ037-044-045-052-053-020400-
   East Central Minnesota

CITY           SKY/WX    TMP DP  RH WIND       PRES   REMARKS
PRINCETON      CLEAR     73  66  78 CALM      29.77S
MORA           CLEAR     64  61  88 CALM      29.79S
CAMBRIDGE      CLEAR     73  63  68 CALM      29.76S
RUSH CITY      CLEAR     67  63  85 CALM      29.77F
MOOSE LAKE     CLEAR     64  61  88 CALM      29.74F
HINCKLEY       FAIR      70  64  83 S6        29.77F
CLOQUET        CLEAR     70  57  64 SW7       29.76S
MCGREGOR       CLEAR     68  61  77 CALM      29.76F
$$
MNZ071>073-080-081-089-090-097-098-020400-
   Southwest Minnesota

CITY           SKY/WX    TMP DP  RH WIND       PRES   REMARKS
MONTEVIDEO     CLEAR     73  63  68 SW7       29.78S
GRANITE FALLS  CLEAR     71  65  79 S6        29.79R
CANBY          CLEAR     77  61  58 SW10G16   29.77S
MARSHALL       CLEAR     73  63  68 SW10      29.80S
REDWOOD FALLS  CLEAR     75  66  73 S10       29.78S
OLIVIA         CLEAR     72  64  78 S6        29.78R
PIPESTONE      MOCLDY    73  64  73 SW9       29.85R
WINDOM         PTCLDY    73  63  68 S8        29.85R
WORTHINGTON    CLEAR     72  63  73 S10       29.87R
JACKSON        PTCLDY    72  64  78 S8        29.88R
TRACY          CLEAR     75  64  69 SW14      29.81S
SLAYTON        PTCLDY    70  65  84 S3        29.85R
$$
MNZ065>067-074>077-082>085-091>093-020400-
   South Central Minnesota

CITY           SKY/WX    TMP DP  RH WIND       PRES   REMARKS
MANKATO        CLEAR     73  64  73 S10       29.81S
NEW ULM        CLEAR     73  63  68 SW9       29.81R
ST JAMES       CLEAR     73  66  78 S9        29.83R
FAIRMONT       PTCLDY    72  63  73 S8        29.85R
GLENCOE        CLEAR     74  68  80 S3        29.78S
FARIBAULT      CLEAR     73  66  78 S8        29.82F
OWATONNA       CLEAR     73  64  73 S10       29.84R
WASECA         CLEAR     72  66  83 S7        29.84F
ALBERT LEA     CLEAR     75  66  73 S3        29.86R
$$
MNZ078>079-086>088-094>096-020400-
   Southeast Minnesota

CITY           SKY/WX    TMP DP  RH WIND       PRES   REMARKS
ROCHESTER      CLEAR     70  66  87 S10       29.86S
RED WING       CLEAR     79  66  65 SW6       29.79S
STANTON        CLEAR     74  66  75 S3        29.79S
DODGE CENTER   CLEAR     73  64  73 SW10      29.85S
WINONA         CLEAR     77  64  65 SW3       29.82S
AUSTIN         CLEAR     72  64  78 S6        29.86S
PRESTON        CLEAR     73  67  80 SW8       29.88R
$$
ABBREVIATIONS USED IN REMARKS
   TC - TEMPERATURES IN CELSIUS
  WCI - WIND CHILL INDEX
   HX - HEAT INDEX
  VSB - VISIBILITY
$$



USA.gov is the U.S. government's official web portal to all federal, state and local government web resources and services.